Flag for United Kingdom Weather past 2 weeks in Lichfield, England, United Kingdom

Now
54 °F

Partly sunny.


Feels Like: 53 °F
Forecast: 48 / 61 °F
Wind: 3 mph from North

Location: Birmingham / Airport

Current Time: Sep 1, 2015 at 8:09:13 AM

Latest Report: Sep 1, 2015 at 7:20 AM


Visibility: N/A

Pressure: 30.04 "Hg

Humidity: 100%

Dew point: 54 °F

Location of LichfieldLocation

Historic Weather in Lichfield — Graph

°F

Lichfield temperature yesterday

Maximum temperature yesterday: 59 °F (at 4:20 PM)
Minimum temperature yesterday: 55 °F (at 7:20 AM)
Average temperature yesterday: 57 °F

Past Weeks' High & Low Weather Summary

 TemperatureHumidityPressure
High82 °F (Aug 22, 3:50 PM)100% (Aug 19, 6:20 AM)30.09 "Hg (Aug 19, 6:20 AM)
Low48 °F (Aug 28, 1:50 AM)43% (Aug 17, 2:50 PM)29.50 "Hg (Aug 23, 11:50 AM)
Average61 °F80%29.87 "Hg
* Reported Aug 17 6:20 AM — Sep 1 6:50 AM, Lichfield, Weather by CustomWeather, © 2015

Note: Actual official high and low records may vary slightly from our data, if they occured in-between our weather recording intervals... More about our weather records

Advertising

Lichfield weather history for previous 24 hours

 ConditionsComfort  
Time TempWeatherWind HumidityBarometerVisibility
6:50 AM
Tue, Sep 1
54 °FPassing clouds.6 mph100%30.04 "Hg4 mi
6:20 AM54 °FDrizzle. Mostly cloudy.9 mph100%30.04 "Hg2 mi
5:50 AM55 °FFog.7 mph94%30.01 "Hg3 mi
4:20 AM54 °FLight rain. Partly cloudy.6 mph100%30.04 "Hg1 mi
3:50 AM54 °FRain. Partly cloudy.8 mph100%30.04 "Hg1 mi
3:20 AM55 °FHeavy rain. Partly cloudy.7 mph94%30.04 "Hg1 mi
2:50 AM55 °FFog.3 mph100%30.04 "Hg2 mi
2:20 AM55 °FFog.5 mph100%30.04 "Hg2 mi
1:50 AM55 °FFog.3 mph100%30.04 "Hg2 mi
1:20 AM55 °FLight rain. Partly cloudy.6 mph100%30.04 "Hg2 mi
12:50 AM55 °FPassing clouds.3 mph100%30.04 "Hg4 mi
12:20 AM55 °FPassing clouds.6 mph100%30.01 "Hg5 mi
11:50 PM
Mon, Aug 31
55 °FPassing clouds.3 mph100%30.01 "Hg2 mi
11:20 PM55 °FLight rain. Partly cloudy.5 mph100%30.01 "Hg4 mi
10:20 PM55 °FPartly cloudy.5 mph100%30.01 "Hg1 mi
9:50 PM55 °FPartly cloudy.7 mph94%30.01 "Hg2 mi
9:20 PM57 °FLight rain. Partly cloudy.9 mph94%30.01 "Hg3 mi
8:50 PM57 °FDrizzle. Broken clouds.9 mph94%30.01 "Hg1 mi
8:20 PM57 °FLight rain. Broken clouds.9 mph94%30.01 "Hg4 mi
7:50 PM57 °FLight rain. Partly sunny.8 mph94%30.01 "Hg2 mi
7:20 PM57 °FDrizzle. Partly sunny.9 mph94%30.01 "Hg2 mi
6:50 PM59 °FDrizzle. Broken clouds.8 mph88%30.01 "Hg6 mi
6:20 PM59 °FPartly sunny.7 mph88%29.98 "HgN/A
5:50 PM59 °FMore clouds than sun.7 mph88%29.98 "HgN/A
5:20 PM59 °FScattered showers. Broken clouds.7 mph88%29.98 "HgN/A
4:50 PM59 °FBroken clouds.9 mph88%29.98 "HgN/A
4:20 PM59 °FBroken clouds.9 mph88%29.98 "Hg6 mi
3:50 PM57 °FDrizzle. Broken clouds.9 mph94%29.98 "Hg4 mi
3:20 PM57 °FDrizzle. Mostly cloudy.12 mph94%29.98 "Hg2 mi
2:50 PM57 °FDrizzle. Mostly cloudy.10 mph100%29.98 "Hg3 mi
2:20 PM57 °FDrizzle. Mostly cloudy.10 mph94%29.98 "Hg3 mi
1:50 PM57 °FDrizzle. Fog.10 mph100%29.98 "Hg2 mi
1:20 PM57 °FDrizzle. Fog.12 mph94%29.98 "Hg2 mi
12:50 PM57 °FDrizzle. Mostly cloudy.12 mph94%29.98 "Hg1 mi
12:20 PM57 °FDrizzle. Mostly cloudy.9 mph94%29.98 "Hg1 mi
11:50 AM55 °FDrizzle. Fog.10 mph100%29.95 "Hg3 mi
11:20 AM57 °FLight rain. Mostly cloudy.10 mph94%29.95 "Hg6 mi
10:50 AM57 °FDrizzle. Mostly cloudy.12 mph94%29.95 "Hg4 mi
10:20 AM55 °FDrizzle. Mostly cloudy.13 mph100%29.95 "Hg3 mi
9:50 AM55 °FDrizzle. Mostly cloudy.10 mph100%29.95 "Hg2 mi
9:20 AM55 °FDrizzle. Mostly cloudy.10 mph100%29.95 "Hg2 mi
8:50 AM55 °FDrizzle. Mostly cloudy.8 mph100%29.95 "Hg1 mi
8:20 AM55 °FDrizzle. Mostly cloudy.9 mph100%29.95 "Hg1 mi
Weather by CustomWeather, © 2015

See weather overviewHow to use our weather pages